{"data":{"norad_id":28376,"intl_designator":"2004-026A","name":"AURA","alt_names":[],"object_type":"PAYLOAD","status":"ACTIVE","operator":null,"country":"US","launch_date":"2004-07-15","launch_site_code":"AFWTR","launch_vehicle":null,"mission":null,"orbit_class":"UNKNOWN","rcs_meters":9.4421,"size_class":null,"mass_kg":null,"dimensions":null,"purposes":["earth_obs"],"wikipedia_slug":null,"has_3d_model":false,"image_url":null,"decayed_at":null,"tle_current":{"epoch":"2026-09-19T21:12:08.796960Z","epoch_age_seconds":67711,"freshness":"FRESH","line1":"1 28376U 04026A   26262.88343515  .00000480  00000+0  10672-3 0  9993","line2":"2 28376  98.3523 220.1736 0001420  68.4023 291.7329 14.61445525180042","mean_motion":14.61445525,"eccentricity":0.000142,"inclination_deg":98.3523,"raan_deg":220.1736,"arg_perigee_deg":68.4023,"mean_anomaly_deg":291.7329,"bstar":0.00010672,"rev_number":18004,"period_min":98.532581294811,"perigee_km":687.50690344268,"apogee_km":689.51383129501,"semimajor_km":7066.6473673688,"source":"CELESTRAK","updated_at":"2026-09-20T09:00:33.884930Z"}}}